"startDT [UTC]","vpos","CH4 [ppm]","stdev(CH4) [ppm]","CO2 [ppm]","stdev(CO2) [ppm]","H2O [ppm]","stdev(H2O)","p_LGR [torr]","T_LGR [C]","mt1_LGR [us]","mt2_LGR [us]","T_ECpre [C]","T_EC1 [C]","T_EC2 [C]","p_inlet [hPa]","p_in [hPa]","p_out [hPa]","T_inlet [C]","RH_inlet [%]","dwpt_inlet [C]","T_vent [C]","RH_vent [%]","dwpt_vent [C]","flow_vent [l min-1]","flow_inlet [l min-1]","dwpt_sample [C]","T_room [C]"
2012-03-10 00:00:00,0.0,1.9196,0.0011,402.82,0.30,1.2,7.8,138.17,25.98,24.59,36.25,0.04,-272.73,-272.73,-47,553,-926,19.4,1.7,-32.7,19.7,1.8,-32.2,5.73,2.52,-30.8,25.4
2012-03-10 00:01:00,0.0,1.9196,0.0011,402.80,0.27,2.1,12.6,138.17,25.97,24.58,36.24,0.04,-272.73,-272.73,-46,553,-926,19.4,1.7,-32.7,19.8,1.8,-32.2,5.73,2.30,-30.8,25.4
2012-03-10 00:02:00,0.0,1.9202,0.0011,402.77,0.36,5.7,16.4,138.17,25.97,24.58,36.25,0.04,-272.73,-272.73,-46,554,-926,19.4,1.7,-32.6,19.8,1.8,-32.2,5.73,2.47,-30.8,25.4
2012-03-10 00:03:00,0.0,1.9199,0.0009,402.80,0.30,0.6,10.4,138.17,25.97,24.58,36.24,0.04,-272.73,-272.73,-47,553,-926,19.4,1.7,-32.6,19.8,1.8,-32.2,5.73,2.37,-30.8,25.4
2012-03-10 00:04:00,0.0,1.9200,0.0012,402.69,0.32,0.3,5.8,138.17,25.97,24.58,36.25,0.04,-272.73,-272.73,-46,553,-926,19.4,1.7,-32.6,19.8,1.8,-32.1,5.73,2.39,-30.8,25.3
2012-03-10 00:05:00,0.0,1.9204,0.0010,402.71,0.37,1.4,10.2,138.17,25.97,24.58,36.25,0.04,-272.73,-272.73,-47,553,-926,19.4,1.7,-32.6,19.8,1.8,-32.0,5.73,2.45,-30.8,25.3
2012-03-10 00:06:00,0.0,1.9197,0.0011,402.80,0.34,-0.4,1.9,138.17,25.97,24.59,36.24,0.04,-272.73,-272.73,-46,554,-926,19.4,1.7,-32.6,19.7,1.8,-32.1,5.73,2.32,-30.8,25.3
2012-03-10 00:07:00,0.0,1.9191,0.0011,402.72,0.31,1.6,7.3,138.17,25.97,24.58,36.24,0.04,-272.73,-272.73,-46,553,-926,19.4,1.7,-32.6,19.7,1.8,-32.1,5.73,2.51,-30.8,25.3
2012-03-10 00:08:00,0.0,1.9195,0.0011,402.75,0.32,1.2,6.6,138.17,25.97,24.58,36.24,0.04,-272.73,-272.73,-47,553,-926,19.4,1.7,-32.6,19.8,1.8,-32.1,5.73,2.28,-30.8,25.3
2012-03-10 00:09:00,0.0,1.9196,0.0010,402.77,0.33,3.4,12.1,138.17,25.97,24.58,36.24,0.04,-272.73,-272.73,-46,553,-926,19.4,1.7,-32.6,19.7,1.8,-32.1,5.73,2.52,-30.8,25.3
2012-03-10 00:10:00,0.0,1.9194,0.0012,402.68,0.30,2.3,12.0,138.17,25.97,24.58,36.25,0.04,-272.73,-272.74,-46,553,-926,19.4,1.7,-32.6,19.8,1.8,-32.1,5.73,2.29,-30.8,25.4
2012-03-10 00:11:00,0.0,1.9201,0.0011,402.78,0.31,2.6,11.1,138.17,25.97,24.58,36.24,0.04,-272.73,-272.73,-46,554,-926,19.4,1.7,-32.6,19.8,1.8,-32.1,5.73,2.48,-30.8,25.4
2012-03-10 00:12:00,0.0,1.9199,0.0011,402.77,0.33,3.0,11.3,138.17,25.97,24.58,36.25,0.04,-272.73,-272.73,-46,553,-926,19.4,1.7,-32.7,19.8,1.8,-32.2,5.73,2.35,-30.8,25.4
2012-03-10 00:13:00,0.0,1.9200,0.0010,402.79,0.33,0.9,8.3,138.17,25.97,24.58,36.24,0.04,-272.73,-272.73,-47,553,-926,19.4,1.7,-32.8,19.8,1.8,-32.2,5.73,2.41,-30.8,25.4
2012-03-10 00:14:00,0.0,1.9200,0.0011,402.83,0.32,0.7,6.1,138.17,25.97,24.58,36.24,0.04,-272.73,-272.73,-46,554,-926,19.4,1.7,-32.8,19.8,1.8,-32.2,5.73,2.42,-30.8,25.4
2012-03-10 00:15:00,0.0,1.9201,0.0010,402.71,0.33,0.8,6.8,138.17,25.97,24.58,36.25,0.04,-272.73,-272.73,-46,553,-926,19.4,1.7,-32.8,19.8,1.8,-32.2,5.73,2.35,-30.8,25.3
2012-03-10 00:16:00,0.0,1.9201,0.0011,402.73,0.30,0.7,5.9,138.17,25.97,24.59,36.25,0.04,-272.73,-272.73,-46,554,-926,19.4,1.7,-32.8,19.8,1.8,-32.2,5.73,2.47,-30.8,25.3
2012-03-10 00:17:00,0.0,1.9207,0.0010,402.75,0.33,2.7,10.3,138.17,25.97,24.58,36.25,0.04,-272.73,-272.74,-46,554,-926,19.4,1.7,-32.8,19.8,1.8,-32.2,5.73,2.30,-30.8,25.4
2012-03-10 00:18:00,0.0,1.9206,0.0011,402.76,0.30,3.1,13.2,138.18,25.97,24.58,36.25,0.04,-272.73,-272.73,-47,554,-926,19.4,1.7,-32.8,19.7,1.8,-32.2,5.73,2.52,-30.8,25.4
2012-03-10 00:19:00,0.0,1.9204,0.0010,402.83,0.29,0.5,6.8,138.17,25.96,24.58,36.24,0.04,-272.73,-272.73,-46,554,-926,19.4,1.7,-32.8,19.7,1.8,-32.3,5.73,2.27,-30.8,25.4
2012-03-10 00:20:00,0.0,1.9205,0.0011,402.80,0.29,2.3,11.4,138.17,25.96,24.58,36.24,0.04,-272.73,-272.73,-46,553,-926,19.4,1.7,-32.8,19.7,1.8,-32.2,5.73,2.51,-30.8,25.4
2012-03-10 00:21:00,0.0,1.9206,0.0012,402.75,0.30,0.8,8.9,138.17,25.96,24.58,36.25,0.04,-272.73,-272.74,-47,553,-926,19.4,1.7,-32.8,19.7,1.8,-32.3,5.73,2.31,-30.8,25.4
2012-03-10 00:22:00,0.0,1.9205,0.0010,402.84,0.34,2.6,11.6,138.17,25.96,24.58,36.24,0.04,-272.73,-272.73,-46,553,-926,19.4,1.7,-32.8,19.8,1.8,-32.2,5.73,2.46,-30.8,25.4
2012-03-10 00:23:00,0.0,1.9209,0.0011,402.79,0.30,2.3,10.5,138.17,25.96,24.58,36.25,0.04,-272.73,-272.73,-47,553,-926,19.4,1.7,-32.8,19.8,1.8,-32.2,5.73,2.37,-30.8,25.4
2012-03-10 00:24:00,0.0,1.9206,0.0010,402.78,0.38,3.8,11.9,138.17,25.96,24.58,36.25,0.04,-272.73,-272.73,-46,553,-926,19.4,1.7,-32.6,19.8,1.8,-32.2,5.73,2.39,-30.8,25.3
2012-03-10 00:25:00,0.0,1.9204,0.0012,402.83,0.31,2.0,9.5,138.17,25.96,24.58,36.25,0.04,-272.73,-272.74,-46,553,-926,19.4,1.7,-32.6,19.8,1.8,-32.2,5.73,2.45,-30.8,25.4
2012-03-10 00:26:00,0.0,1.9202,0.0011,402.86,0.34,0.5,6.0,138.17,25.96,24.58,36.24,0.04,-272.73,-272.73,-46,554,-926,19.4,1.7,-32.7,19.7,1.8,-32.1,5.73,2.32,-30.8,25.4
2012-03-10 00:27:00,0.0,1.9206,0.0011,402.84,0.33,0.7,6.5,138.17,25.96,24.58,36.24,0.04,-272.73,-272.73,-46,554,-926,19.4,1.7,-32.6,19.8,1.8,-32.1,5.73,2.50,-30.8,25.4
2012-03-10 00:28:00,0.0,1.9206,0.0009,402.88,0.34,-0.0,4.8,138.17,25.96,24.58,36.24,0.04,-272.73,-272.73,-47,553,-926,19.4,1.7,-32.6,19.8,1.8,-32.0,5.73,2.28,-30.8,25.4
2012-03-10 00:29:00,0.0,1.9203,0.0010,402.82,0.29,2.6,10.5,138.17,25.96,24.58,36.25,0.04,-272.74,-272.73,-46,554,-926,19.4,1.7,-32.6,19.8,1.8,-32.1,5.73,2.52,-30.8,25.4
2012-03-10 00:30:00,0.0,1.9201,0.0009,402.80,0.30,1.5,9.0,138.17,25.96,24.58,36.24,0.04,-272.73,-272.73,-46,554,-926,19.4,1.7,-32.6,19.8,1.8,-32.0,5.73,2.28,-30.8,25.4
2012-03-10 00:31:00,0.0,1.9199,0.0010,402.85,0.33,0.4,7.0,138.17,25.96,24.59,36.24,0.04,-272.73,-272.73,-47,553,-926,19.4,1.7,-32.6,19.7,1.8,-32.1,5.73,2.50,-30.8,25.4
2012-03-10 00:32:00,0.0,1.9202,0.0012,402.78,0.36,1.2,7.9,138.17,25.96,24.58,36.25,0.04,-272.73,-272.74,-46,554,-926,19.4,1.7,-32.6,19.7,1.8,-32.1,5.73,2.32,-30.8,25.3
2012-03-10 00:33:00,0.0,1.9201,0.0009,402.77,0.32,0.4,6.3,138.17,25.96,24.58,36.25,0.04,-272.73,-272.73,-47,554,-926,19.4,1.7,-32.6,19.7,1.8,-32.1,5.73,2.44,-30.8,25.3
2012-03-10 00:34:00,0.0,1.9201,0.0010,402.84,0.31,0.8,6.7,138.17,25.95,24.58,36.24,0.04,-272.73,-272.74,-46,554,-926,19.4,1.7,-32.6,19.7,1.8,-32.1,5.73,2.40,-30.8,25.3
2012-03-10 00:35:00,0.0,1.9202,0.0008,402.75,0.31,2.1,10.5,138.17,25.95,24.58,36.25,0.04,-272.73,-272.73,-46,554,-926,19.4,1.7,-32.6,19.7,1.8,-32.1,5.73,2.36,-30.9,25.3
2012-03-10 00:36:00,0.0,1.9203,0.0011,402.87,0.31,2.4,14.0,138.17,25.95,24.58,36.24,0.04,-272.73,-272.73,-47,553,-926,19.4,1.7,-32.6,19.8,1.8,-32.0,5.73,2.46,-30.8,25.3
2012-03-10 00:37:00,0.0,1.9198,0.0012,402.74,0.29,1.5,8.0,138.17,25.95,24.58,36.25,0.04,-272.73,-272.73,-46,553,-926,19.4,1.8,-32.6,19.7,1.8,-32.1,5.73,2.31,-30.8,25.3
2012-03-10 00:38:00,0.0,1.9197,0.0011,402.74,0.31,0.3,4.3,138.17,25.96,24.58,36.24,0.04,-272.73,-272.73,-46,553,-926,19.4,1.8,-32.5,19.8,1.8,-31.9,5.73,2.51,-30.8,25.3
2012-03-10 00:39:00,0.0,1.9199,0.0011,402.76,0.36,0.2,6.1,138.17,25.95,24.58,36.25,0.04,-272.73,-272.73,-46,554,-926,19.4,1.8,-32.4,19.7,1.8,-32.0,5.73,2.28,-30.8,25.3
2012-03-10 00:40:00,0.0,1.9200,0.0010,402.83,0.32,2.0,12.8,138.17,25.95,24.58,36.24,0.04,-272.73,-272.74,-46,554,-926,19.4,1.8,-32.5,19.7,1.8,-31.9,5.73,2.52,-30.8,25.3
2012-03-10 00:41:00,0.0,1.9202,0.0012,402.84,0.34,0.6,8.4,138.17,25.95,24.58,36.25,0.04,-272.73,-272.73,-47,554,-926,19.4,1.8,-32.5,19.7,1.8,-31.9,5.73,2.28,-30.9,25.4
2012-03-10 00:42:00,0.0,1.9201,0.0011,402.75,0.27,-0.2,3.7,138.17,25.94,24.59,36.24,0.04,-272.73,-272.73,-46,554,-926,19.4,1.8,-32.4,19.7,1.8,-31.9,5.73,2.50,-30.8,25.4
2012-03-10 00:43:00,0.0,1.9204,0.0013,402.74,0.28,2.1,10.8,138.17,25.94,24.58,36.25,0.04,-272.73,-272.74,-46,553,-926,19.4,1.8,-32.4,19.7,1.8,-31.9,5.73,2.32,-30.8,25.3
2012-03-10 00:44:00,0.0,1.9198,0.0010,402.82,0.32,0.0,3.9,138.17,25.94,24.58,36.24,0.04,-272.73,-272.73,-46,554,-926,19.4,1.8,-32.4,19.7,1.8,-31.9,5.73,2.45,-30.8,25.4
2012-03-10 00:45:00,0.0,1.9193,0.0011,402.77,0.27,-0.3,5.1,138.17,25.94,24.58,36.25,0.04,-272.73,-272.73,-46,554,-926,19.4,1.8,-32.4,19.7,1.8,-31.9,5.73,2.37,-30.9,25.4
2012-03-10 00:46:00,0.0,1.9203,0.0010,402.78,0.34,1.4,6.9,138.17,25.95,24.58,36.24,0.04,-272.73,-272.73,-47,553,-926,19.4,1.8,-32.4,19.7,1.8,-31.9,5.73,2.40,-30.8,25.3
2012-03-10 00:47:00,0.0,1.9204,0.0010,402.80,0.30,1.0,8.8,138.17,25.94,24.58,36.25,0.04,-272.73,-272.73,-46,554,-926,19.4,1.8,-32.5,19.7,1.8,-31.9,5.73,2.42,-30.8,25.3
2012-03-10 00:48:00,0.0,1.9203,0.0011,402.79,0.27,3.1,11.9,138.17,25.94,24.58,36.24,0.04,-272.73,-272.73,-47,553,-926,19.4,1.8,-32.5,19.7,1.8,-31.9,5.73,2.35,-30.8,25.4
2012-03-10 00:49:00,0.0,1.9204,0.0009,402.77,0.27,1.9,11.9,138.17,25.94,24.58,36.25,0.04,-272.73,-272.73,-46,554,-926,19.4,1.8,-32.5,19.7,1.8,-31.9,5.73,2.47,-30.8,25.4
2012-03-10 00:50:00,0.0,1.9203,0.0010,402.75,0.31,1.6,10.3,138.17,25.94,24.58,36.25,0.04,-272.73,-272.73,-46,553,-926,19.4,1.8,-32.5,19.8,1.8,-31.9,5.73,2.31,-30.8,25.4
2012-03-10 00:51:00,0.0,1.9202,0.0010,402.76,0.35,1.6,9.1,138.17,25.94,24.58,36.24,0.04,-272.73,-272.73,-47,554,-926,19.4,1.8,-32.5,19.8,1.8,-31.9,5.73,2.50,-30.8,25.3
2012-03-10 00:52:00,0.0,1.9193,0.0012,402.79,0.38,1.9,12.2,138.17,25.94,24.58,36.24,0.04,-272.73,-272.73,-46,553,-926,19.4,1.8,-32.4,19.7,1.8,-31.9,5.73,2.29,-30.9,25.4
2012-03-10 00:53:00,0.0,1.9197,0.0011,402.78,0.31,1.3,8.5,138.17,25.94,24.58,36.24,0.04,-272.73,-272.73,-47,553,-926,19.4,1.8,-32.5,19.8,1.8,-31.9,5.73,2.52,-30.9,25.4
2012-03-10 00:54:00,0.0,1.9200,0.0011,402.85,0.30,1.8,12.9,138.17,25.94,24.58,36.24,0.04,-272.73,-272.73,-46,554,-926,19.4,1.8,-32.4,19.8,1.8,-31.9,5.73,2.28,-30.9,25.4
2012-03-10 00:55:00,0.0,1.9196,0.0011,402.78,0.32,1.5,8.6,138.17,25.94,24.58,36.25,0.04,-272.73,-272.73,-46,553,-926,19.4,1.8,-32.4,19.7,1.8,-31.9,5.73,2.51,-30.9,25.4
2012-03-10 00:56:00,0.0,1.9191,0.0010,402.70,0.32,-0.4,2.4,138.17,25.94,24.58,36.25,0.04,-272.73,-272.73,-46,554,-926,19.4,1.8,-32.4,19.8,1.8,-31.9,5.73,2.30,-30.9,25.3
2012-03-10 00:57:00,0.0,1.9188,0.0010,402.72,0.29,1.8,11.6,138.17,25.94,24.58,36.25,0.04,-272.73,-272.73,-46,554,-926,19.4,1.8,-32.5,19.8,1.8,-31.9,5.73,2.48,-30.9,25.3
2012-03-10 00:58:00,0.0,1.9197,0.0012,402.75,0.36,1.9,12.6,138.17,25.94,24.58,36.24,0.04,-272.73,-272.73,-47,554,-926,19.4,1.8,-32.5,19.7,1.8,-31.9,5.73,2.34,-30.9,25.4
2012-03-10 00:59:00,0.0,1.9196,0.0011,402.84,0.27,0.7,7.6,138.17,25.94,24.58,36.24,0.04,-272.73,-272.73,-46,554,-926,19.4,1.8,-32.5,19.8,1.8,-31.9,5.73,2.45,-30.9,25.4
2012-03-10 01:00:00,0.0,1.9194,0.0012,402.74,0.31,2.4,9.7,138.17,25.94,24.58,36.24,0.04,-272.73,-272.73,-46,554,-926,19.4,1.8,-32.5,19.8,1.8,-31.9,5.73,2.38,-30.9,25.4
2012-03-10 01:01:00,0.0,1.9200,0.0010,402.88,0.30,0.9,9.7,138.17,25.94,24.58,36.24,0.04,-272.73,-272.73,-46,554,-926,19.4,1.8,-32.4,19.8,1.8,-31.9,5.73,2.39,-30.9,25.4
2012-03-10 01:02:00,0.0,1.9197,0.0012,402.68,0.30,3.6,13.0,138.17,25.94,24.58,36.25,0.04,-272.73,-272.73,-46,554,-926,19.4,1.8,-32.3,19.8,1.9,-31.8,5.73,2.43,-30.9,25.4
2012-03-10 01:03:00,0.0,1.9192,0.0011,402.71,0.36,1.4,6.8,138.17,25.93,24.58,36.25,0.04,-272.73,-272.73,-47,554,-926,19.4,1.8,-32.3,19.8,1.9,-31.8,5.73,2.34,-30.9,25.4
2012-03-10 01:04:00,0.0,1.9196,0.0011,402.81,0.29,0.6,6.3,138.17,25.93,24.58,36.25,0.04,-272.73,-272.73,-46,554,-926,19.4,1.8,-32.3,19.8,1.9,-31.7,5.73,2.47,-30.9,25.4
2012-03-10 01:05:00,0.0,1.9197,0.0011,402.80,0.31,1.0,8.2,138.17,25.93,24.58,36.25,0.04,-272.73,-272.73,-47,554,-926,19.4,1.8,-32.3,19.8,1.9,-31.7,5.73,2.31,-30.9,25.4
2012-03-10 01:06:00,0.0,1.9199,0.0010,402.71,0.23,1.1,8.3,138.17,25.93,24.58,36.25,0.04,-272.73,-272.73,-46,554,-926,19.4,1.8,-32.3,19.8,1.8,-31.8,5.73,2.50,-30.9,25.4
2012-03-10 01:07:00,0.0,1.9196,0.0011,402.83,0.33,0.3,6.4,138.17,25.93,24.58,36.24,0.04,-272.73,-272.73,-46,554,-926,19.4,1.8,-32.3,19.8,1.9,-31.7,5.73,2.30,-30.9,25.4
2012-03-10 01:08:00,0.0,1.9195,0.0011,402.68,0.32,0.7,5.3,138.17,25.93,24.58,36.25,0.04,-272.73,-272.73,-47,554,-926,19.4,1.8,-32.3,19.8,1.9,-31.7,5.73,2.51,-30.9,25.4
2012-03-10 01:09:00,0.0,1.9198,0.0011,402.76,0.36,0.7,5.5,138.17,25.93,24.58,36.25,0.04,-272.73,-272.73,-46,554,-926,19.4,1.8,-32.3,19.8,1.9,-31.7,5.73,2.28,-30.9,25.4
2012-03-10 01:10:00,0.0,1.9191,0.0010,402.71,0.36,0.6,7.2,138.17,25.93,24.59,36.24,0.04,-272.73,-272.73,-47,554,-926,19.4,1.8,-32.3,19.8,1.9,-31.7,5.73,2.52,-30.9,25.4
2012-03-10 01:11:00,0.0,1.9200,0.0010,402.75,0.36,1.1,8.6,138.17,25.93,24.58,36.25,0.04,-272.73,-272.73,-46,554,-926,19.4,1.8,-32.3,19.8,1.9,-31.7,5.73,2.28,-30.9,25.4
2012-03-10 01:12:00,0.0,1.9202,0.0010,402.86,0.34,1.7,13.3,138.17,25.93,24.58,36.24,0.04,-272.73,-272.73,-46,554,-926,19.4,1.8,-32.3,19.8,1.9,-31.7,5.73,2.51,-30.9,25.4
2012-03-10 01:13:00,0.0,1.9199,0.0009,402.77,0.33,0.7,7.8,138.17,25.94,24.58,36.25,0.04,-272.73,-272.73,-46,554,-926,19.4,1.8,-32.3,19.8,1.9,-31.7,5.73,2.29,-30.9,25.4
2012-03-10 01:14:00,0.0,1.9205,0.0011,402.85,0.32,0.9,5.4,138.17,25.94,24.58,36.25,0.04,-272.73,-272.73,-46,554,-926,19.4,1.8,-32.3,19.8,1.9,-31.7,5.73,2.50,-30.9,25.3
2012-03-10 01:15:00,0.0,1.9204,0.0010,402.88,0.29,1.0,6.3,138.17,25.94,24.58,36.24,0.04,-272.73,-272.73,-47,554,-926,19.4,1.8,-32.3,19.8,1.9,-31.7,5.73,2.31,-30.9,25.4
2012-03-10 01:16:00,0.0,1.9188,0.0011,402.75,0.29,0.6,7.4,138.17,25.94,24.58,36.24,0.04,-272.73,-272.73,-46,554,-926,19.4,1.8,-32.2,19.8,1.9,-31.7,5.73,2.47,-30.9,25.3
2012-03-10 01:17:00,0.0,1.9187,0.0011,402.69,0.34,0.8,7.5,138.17,25.94,24.58,36.24,0.04,-272.73,-272.74,-47,554,-926,19.4,1.8,-32.1,19.8,1.9,-31.6,5.73,2.35,-30.9,25.4
2012-03-10 01:18:00,0.0,1.9187,0.0010,402.81,0.32,-0.5,2.7,138.17,25.94,24.58,36.24,0.04,-272.73,-272.73,-46,554,-926,19.4,1.8,-32.2,19.8,1.9,-31.6,5.73,2.43,-30.9,25.4
2012-03-10 01:19:00,0.0,1.9199,0.0011,402.64,0.29,-0.3,4.8,138.17,25.94,24.58,36.25,0.04,-272.73,-272.73,-46,554,-926,19.4,1.8,-32.1,19.8,1.9,-31.6,5.73,2.39,-30.9,25.4
2012-03-10 01:20:00,0.0,1.9197,0.0010,402.78,0.28,-0.3,3.5,138.17,25.94,24.58,36.24,0.04,-272.73,-272.73,-47,554,-926,19.4,1.8,-32.2,19.8,1.9,-31.7,5.73,2.39,-30.9,25.4
2012-03-10 01:21:00,0.0,1.9198,0.0012,402.81,0.29,1.9,8.5,138.17,25.94,24.58,36.24,0.04,-272.73,-272.73,-46,554,-927,19.4,1.8,-32.2,19.8,1.9,-31.7,5.73,2.44,-30.9,25.4
2012-03-10 01:22:00,0.0,1.9199,0.0011,402.85,0.30,0.3,3.7,138.17,25.94,24.58,36.24,0.04,-272.73,-272.73,-47,554,-926,19.4,1.8,-32.2,19.8,1.9,-31.7,5.73,2.33,-30.9,25.4
2012-03-10 01:23:00,0.0,1.9195,0.0010,402.73,0.33,0.1,6.0,138.17,25.94,24.58,36.25,0.04,-272.73,-272.73,-46,554,-926,19.4,1.8,-32.3,19.8,1.8,-31.8,5.73,2.48,-30.9,25.4
2012-03-10 01:24:00,0.0,1.9201,0.0010,402.67,0.30,1.7,11.6,138.17,25.94,24.58,36.25,0.04,-272.73,-272.73,-46,554,-926,19.4,1.8,-32.3,19.8,1.9,-31.7,5.73,2.30,-30.9,25.3
2012-03-10 01:25:00,0.0,1.9198,0.0011,402.71,0.32,1.5,8.6,138.17,25.94,24.58,36.25,0.04,-272.73,-272.73,-46,554,-926,19.4,1.8,-32.3,19.8,1.9,-31.7,5.73,2.51,-30.8,25.3
2012-03-10 01:26:00,0.0,1.9198,0.0013,402.81,0.30,1.3,8.1,138.17,25.94,24.58,36.24,0.04,-272.73,-272.73,-46,554,-926,19.4,1.8,-32.3,19.8,1.9,-31.7,5.73,2.29,-30.9,25.3
2012-03-10 01:27:00,0.0,1.9197,0.0011,402.70,0.31,0.2,4.3,138.17,25.94,24.58,36.25,0.04,-272.73,-272.73,-47,554,-926,19.4,1.8,-32.3,19.8,1.9,-31.7,5.73,2.52,-30.9,25.4
2012-03-10 01:28:00,0.0,1.9201,0.0010,402.71,0.31,1.5,9.4,138.17,25.94,24.58,36.25,0.04,-272.73,-272.73,-46,554,-926,19.4,1.8,-32.3,19.8,1.9,-31.7,5.73,2.28,-30.9,25.4
2012-03-10 01:29:00,0.0,1.9198,0.0008,402.78,0.36,-0.3,3.2,138.17,25.93,24.58,36.25,0.04,-272.73,-272.73,-46,554,-926,19.4,1.8,-32.2,19.8,1.9,-31.7,5.73,2.52,-30.8,25.4
2012-03-10 01:30:00,0.0,1.9194,0.0010,402.85,0.31,2.7,10.5,138.17,25.93,24.59,36.24,0.04,-272.73,-272.73,-46,554,-926,19.4,1.8,-32.3,19.8,1.8,-31.8,5.73,2.29,-30.8,25.4
2012-03-10 01:31:00,0.0,1.9198,0.0010,402.75,0.30,0.2,4.2,138.17,25.93,24.58,36.25,0.04,-272.73,-272.73,-46,554,-926,19.4,1.8,-32.2,19.8,1.9,-31.7,5.73,2.50,-30.8,25.4
2012-03-10 01:32:00,0.0,1.9195,0.0011,402.78,0.34,2.0,10.9,138.17,25.93,24.58,36.24,0.04,-272.73,-272.73,-47,554,-926,19.4,1.8,-32.3,19.8,1.8,-31.8,5.73,2.31,-30.8,25.4
2012-03-10 01:33:00,0.0,1.9194,0.0009,402.77,0.29,1.0,6.9,138.17,25.93,24.58,36.25,0.04,-272.73,-272.73,-46,554,-926,19.4,1.8,-32.3,19.8,1.8,-31.8,5.73,2.48,-30.9,25.4
2012-03-10 01:34:00,0.0,1.9188,0.0010,402.86,0.32,0.8,7.3,138.17,25.93,24.58,36.24,0.04,-272.73,-272.74,-47,554,-927,19.4,1.8,-32.3,19.8,1.9,-31.7,5.73,2.35,-30.8,25.4
2012-03-10 01:35:00,0.0,1.9191,0.0010,402.87,0.35,4.1,16.3,138.17,25.93,24.58,36.24,0.04,-272.74,-272.73,-46,554,-926,19.4,1.8,-32.3,19.8,1.9,-31.7,5.73,2.43,-30.9,25.4
2012-03-10 01:36:00,0.0,1.9196,0.0009,402.76,0.29,1.7,9.7,138.17,25.93,24.58,36.24,0.04,-272.73,-272.73,-46,554,-926,19.4,1.8,-32.3,19.8,1.9,-31.7,5.73,2.40,-30.8,25.4
2012-03-10 01:37:00,0.0,1.9196,0.0012,402.81,0.30,2.5,9.7,138.17,25.93,24.58,36.25,0.04,-272.73,-272.73,-47,554,-927,19.4,1.8,-32.3,19.8,1.9,-31.7,5.73,2.38,-30.8,25.4
2012-03-10 01:38:00,0.0,1.9188,0.0014,402.83,0.29,1.5,10.3,138.17,25.93,24.58,36.24,0.04,-272.73,-272.73,-46,554,-927,19.5,1.8,-32.2,19.8,1.9,-31.7,5.73,2.43,-30.8,25.3
2012-03-10 01:39:00,0.0,1.9180,0.0009,402.73,0.31,1.2,10.5,138.17,25.93,24.58,36.24,0.04,-272.73,-272.73,-47,554,-926,19.4,1.8,-32.3,19.8,1.9,-31.7,5.73,2.35,-30.8,25.4
2012-03-10 01:40:00,0.0,1.9185,0.0010,402.69,0.25,1.9,8.9,138.17,25.93,24.58,36.25,0.04,-272.73,-272.73,-46,554,-927,19.5,1.8,-32.2,19.8,1.9,-31.7,5.73,2.45,-30.8,25.4
2012-03-10 01:41:00,0.0,1.9185,0.0010,402.69,0.33,0.1,7.4,138.17,25.93,24.58,36.25,0.04,-272.73,-272.73,-47,554,-927,19.5,1.8,-32.3,19.8,1.9,-31.7,5.73,2.33,-30.8,25.4
2012-03-10 01:42:00,0.0,1.9196,0.0011,402.68,0.31,1.3,6.1,138.17,25.93,24.58,36.25,0.04,-272.73,-272.73,-46,554,-926,19.4,1.8,-32.3,19.8,1.9,-31.7,5.73,2.47,-30.8,25.4
2012-03-10 01:43:00,0.0,1.9195,0.0010,402.81,0.34,0.4,6.4,138.17,25.93,24.59,36.24,0.04,-272.73,-272.73,-46,554,-926,19.5,1.8,-32.2,19.8,1.9,-31.7,5.73,2.32,-30.8,25.4
2012-03-10 01:44:00,0.0,1.9190,0.0011,402.73,0.29,2.4,9.4,138.17,25.93,24.58,36.24,0.04,-272.73,-272.73,-46,554,-927,19.5,1.8,-32.3,19.8,1.8,-31.7,5.73,2.49,-30.8,25.4
2012-03-10 01:45:00,0.0,1.9184,0.0010,402.80,0.32,3.8,12.8,138.17,25.93,24.59,36.24,0.04,-272.73,-272.73,-46,554,-927,19.5,1.8,-32.2,19.8,1.9,-31.7,5.73,2.30,-30.8,25.4
2012-03-10 01:46:00,0.0,1.9184,0.0009,402.67,0.38,1.9,9.7,138.17,25.92,24.58,36.25,0.04,-272.73,-272.73,-47,554,-927,19.4,1.8,-32.1,19.8,1.9,-31.7,5.73,2.50,-30.8,25.4
2012-03-10 01:47:00,0.0,1.9190,0.0010,402.68,0.29,2.0,9.3,138.17,25.92,24.58,36.25,0.04,-272.73,-272.73,-46,554,-927,19.5,1.8,-32.2,19.8,1.9,-31.7,5.73,2.29,-30.8,25.4
2012-03-10 01:48:00,0.0,1.9192,0.0010,402.67,0.36,0.3,6.2,138.17,25.92,24.58,36.25,0.04,-272.73,-272.73,-47,554,-927,19.5,1.8,-32.2,19.8,1.9,-31.7,5.73,2.51,-30.8,25.4
2012-03-10 01:49:00,0.0,1.9195,0.0011,402.73,0.29,2.7,14.0,138.17,25.93,24.58,36.25,0.04,-272.73,-272.73,-46,554,-926,19.5,1.8,-32.3,19.8,1.9,-31.7,5.73,2.28,-30.8,25.4
2012-03-10 01:50:00,0.0,1.9193,0.0010,402.73,0.34,1.2,9.3,138.17,25.93,24.58,36.25,0.04,-272.73,-272.73,-46,554,-927,19.5,1.8,-32.2,19.8,1.9,-31.7,5.73,2.52,-30.8,25.4
2012-03-10 01:51:00,0.0,1.9190,0.0012,402.76,0.26,1.6,10.5,138.17,25.93,24.58,36.24,0.04,-272.73,-272.73,-47,554,-926,19.5,1.8,-32.3,19.8,1.8,-31.8,5.73,2.28,-30.8,25.4
2012-03-10 01:52:00,0.0,1.9195,0.0010,402.78,0.31,2.5,12.3,138.17,25.93,24.58,36.25,0.04,-272.73,-272.73,-46,554,-926,19.4,1.8,-32.2,19.8,1.9,-31.7,5.73,2.52,-30.8,25.4
2012-03-10 01:53:00,0.0,1.9190,0.0010,402.71,0.29,0.3,6.3,138.17,25.94,24.58,36.24,0.04,-272.73,-272.74,-47,554,-926,19.4,1.8,-32.3,19.8,1.9,-31.7,5.73,2.28,-30.7,25.4
2012-03-10 01:54:00,0.0,1.9198,0.0011,402.79,0.33,0.2,6.6,138.17,25.94,24.58,36.24,0.04,-272.73,-272.73,-46,554,-927,19.4,1.8,-32.3,19.8,1.9,-31.7,5.73,2.52,-30.7,25.4
2012-03-10 01:55:00,0.0,1.9201,0.0011,402.87,0.34,3.9,15.4,138.17,25.94,24.58,36.24,0.04,-272.73,-272.73,-47,554,-926,19.4,1.8,-32.3,19.8,1.9,-31.7,5.73,2.28,-30.7,25.4
2012-03-10 01:56:00,0.0,1.9197,0.0011,402.77,0.27,2.4,10.4,138.17,25.94,24.58,36.24,0.04,-272.73,-272.73,-46,554,-926,19.5,1.8,-32.2,19.8,1.9,-31.7,5.73,2.52,-30.7,25.4
2012-03-10 01:57:00,0.0,1.9197,0.0012,402.79,0.31,1.7,8.5,138.17,25.94,24.58,36.25,0.04,-272.73,-272.73,-46,554,-926,19.5,1.8,-32.2,19.8,1.9,-31.7,5.73,2.28,-30.7,25.5
2012-03-10 01:58:00,0.0,1.9194,0.0010,402.81,0.27,1.0,12.4,138.17,25.94,24.58,36.24,0.04,-272.73,-272.74,-47,554,-926,19.5,1.8,-32.3,19.8,1.8,-31.8,5.73,2.51,-30.7,25.4
2012-03-10 01:59:00,0.0,1.9189,0.0010,402.76,0.33,-0.4,3.1,138.17,25.94,24.58,36.24,0.04,-272.73,-272.73,-46,554,-926,19.5,1.8,-32.2,19.8,1.9,-31.7,5.73,2.29,-30.7,25.4
2012-03-10 02:00:00,0.0,1.9197,0.0010,402.77,0.35,0.1,5.2,138.17,25.94,24.58,36.24,0.04,-272.73,-272.73,-47,554,-926,19.5,1.8,-32.3,19.8,1.9,-31.7,5.73,2.51,-30.7,25.4
2012-03-10 02:01:00,0.0,1.9192,0.0010,402.71,0.33,0.5,5.3,138.17,25.94,24.58,36.24,0.04,-272.73,-272.73,-46,554,-927,19.5,1.8,-32.2,19.8,1.9,-31.7,5.73,2.29,-30.7,25.4
2012-03-10 02:02:00,0.0,1.9196,0.0010,402.82,0.31,0.4,5.5,138.17,25.94,24.58,36.24,0.04,-272.73,-272.73,-47,554,-926,19.5,1.8,-32.2,19.8,1.9,-31.7,5.73,2.49,-30.7,25.4
2012-03-10 02:03:00,0.0,1.9197,0.0009,402.73,0.32,0.0,4.7,138.17,25.94,24.58,36.25,0.04,-272.73,-272.73,-46,554,-927,19.5,1.8,-32.3,19.8,1.8,-31.8,5.73,2.31,-30.7,25.4
2012-03-10 02:04:00,0.0,1.9200,0.0013,402.75,0.32,8.2,21.9,138.17,25.95,24.58,36.25,0.04,-272.73,-272.73,-46,554,-927,19.5,1.8,-32.3,19.8,1.8,-31.7,5.73,2.47,-30.7,25.5
2012-03-10 02:05:00,0.0,1.9191,0.0012,402.65,0.31,0.0,4.2,138.17,25.94,24.58,36.25,0.04,-272.73,-272.73,-47,554,-927,19.5,1.8,-32.2,19.8,1.8,-31.8,5.73,2.33,-30.7,25.4
2012-03-10 02:06:00,0.0,1.9194,0.0011,402.69,0.33,1.3,6.4,138.17,25.94,24.58,36.25,0.04,-272.73,-272.73,-46,554,-927,19.5,1.8,-32.2,19.8,1.9,-31.7,5.73,2.46,-30.7,25.5
2012-03-10 02:07:00,0.0,1.9195,0.0011,402.68,0.30,1.5,8.7,138.17,25.94,24.58,36.25,0.04,-272.73,-272.73,-47,554,-927,19.5,1.8,-32.2,19.9,1.9,-31.7,5.73,2.34,-30.7,25.4
2012-03-10 02:08:00,0.0,1.9195,0.0010,402.71,0.33,1.8,9.1,138.17,25.93,24.58,36.24,0.04,-272.73,-272.73,-46,554,-927,19.5,1.8,-32.2,19.9,1.9,-31.7,5.73,2.46,-30.7,25.4
2012-03-10 02:09:00,0.0,1.9199,0.0011,402.69,0.32,1.8,8.4,138.17,25.94,24.58,36.25,0.04,-272.73,-272.73,-47,554,-927,19.5,1.8,-32.3,19.9,1.9,-31.7,5.73,2.34,-30.7,25.4
2012-03-10 02:10:00,0.0,1.9193,0.0010,402.79,0.29,1.3,8.2,138.17,25.94,24.59,36.24,0.04,-272.73,-272.73,-46,554,-926,19.5,1.8,-32.4,19.8,1.9,-31.7,5.73,2.45,-30.7,25.5
2012-03-10 02:11:00,0.0,1.9193,0.0010,402.79,0.35,1.0,8.1,138.17,25.94,24.58,36.24,0.04,-272.73,-272.74,-46,554,-927,19.5,1.8,-32.4,19.8,1.8,-31.8,5.73,2.35,-30.7,25.5
2012-03-10 02:12:00,0.0,1.9195,0.0011,402.64,0.29,3.3,12.3,138.17,25.94,24.58,36.25,0.04,-272.73,-272.73,-46,554,-927,19.5,1.8,-32.4,19.8,1.8,-31.9,5.73,2.44,-30.7,25.4
2012-03-10 02:13:00,0.0,1.9194,0.0010,402.75,0.34,0.4,4.9,138.17,25.94,24.58,36.24,0.04,-272.73,-272.73,-46,554,-926,19.5,1.8,-32.4,19.9,1.8,-31.8,5.73,2.35,-30.7,25.4
2012-03-10 02:14:00,0.0,1.9199,0.0012,402.73,0.32,2.0,9.0,138.17,25.94,24.58,36.24,0.04,-272.73,-272.73,-47,555,-927,19.5,1.8,-32.4,19.8,1.8,-31.9,5.73,2.45,-30.7,25.4
2012-03-10 02:15:00,0.0,1.9190,0.0014,402.74,0.30,2.5,10.7,138.17,25.95,24.58,36.25,0.04,-272.73,-272.73,-46,554,-927,19.5,1.8,-32.4,19.9,1.8,-31.8,5.73,2.35,-30.7,25.4
2012-03-10 02:16:00,0.0,1.9186,0.0009,402.65,0.30,2.1,8.5,138.17,25.95,24.58,36.25,0.04,-272.73,-272.73,-47,554,-927,19.5,1.8,-32.2,19.9,1.9,-31.7,5.73,2.44,-30.7,25.4
2012-03-10 02:17:00,0.0,1.9191,0.0009,402.71,0.29,1.5,9.9,138.17,25.95,24.58,36.25,0.04,-272.73,-272.73,-46,555,-926,19.5,1.8,-32.2,19.9,1.9,-31.7,5.73,2.37,-30.7,25.4
2012-03-10 02:18:00,0.0,1.9188,0.0010,402.76,0.31,1.6,7.0,138.17,25.95,24.58,36.24,0.04,-272.74,-272.73,-47,554,-927,19.5,1.8,-32.3,19.9,1.8,-31.7,5.73,2.43,-30.7,25.4
2012-03-10 02:19:00,0.0,1.9194,0.0010,402.75,0.30,0.7,5.6,138.17,25.96,24.58,36.25,0.04,-272.73,-272.73,-46,554,-927,19.5,1.8,-32.4,19.9,1.8,-31.8,5.73,2.38,-30.7,25.5